User: anonymous   Login
Location: Avoca
(45.7167°N, 74.7000°W)
Time: 19:46:44
(UTC+00:00)
Language:

Tiangong - Orbit

View from above orbital plane
View from above orbital plane
View from above satellite
View from above satellite

Ground track
Ground track

The orbit data is extracted from the following two-line orbital elements,

1 48274U 21035A   24114.22334081  .00029018  00000-0  29418-3 0  9998
2 48274  41.4685  58.8294 0005473  68.4341 291.7082 15.64574599170491
Epoch (UTC): 23 April 2024 05:21:36
Eccentricity: 0.0005473
inclination: 41.4685°
perigee height: 371 km
apogee height: 378 km
right ascension of ascending node: 58.8294°
argument of perigee: 68.4341°
revolutions per day: 15.64574599
mean anomaly at epoch: 291.7082°
orbit number at epoch: 17049

The dashed part of the orbit path shows where the satellite is in the earth's shadow,  

DLR